Track COSMOS 1783 now! 10-day predictions COSMOS 1783 is classified as:
1 16993U 86075A 24256.97975225 .01715199 47573-5 50174-3 0 9993 2 16993 62.0263 244.5023 1309708 84.8668 290.0086 13.35054692622662